sat.trackr.live / text

‹ back to catalog

STARLINK-30782

NORAD 58137 · 2023-162V

PAYLOAD ACTIVE UNKNOWN

§ Identity

Operator
Country
US
Launch date
2023-10-22
Launch site
AFETR
Launch vehicle
Mass (kg)
RCS (m²)

Purposes: comms

External: N2YO · Heavens-Above · Gunter

§ Orbital elements

Epoch: 2026-09-20T00:10:48.038880Z

Period
94.27 min
Inclination
43.0036°
Eccentricity
0.0000855
Mean motion
15.27576852 rev/d
Perigee alt
482.5 km
Apogee alt
483.6 km
Semi-major
6,861.2 km
B*
2.1244e-5
RAAN
115.2341°
Arg perigee
268.1225°
Mean anomaly
91.9529°
Rev number
16,202

§ Raw data

STARLINK-307821 58137U 23162V   26263.00750045  .00000323  00000+0  21244-4 0  99922 58137  43.0036 115.2341 0000855 268.1225  91.9529 15.27576852162027

JSON: /api/v1/satellites/58137 · /tle

For live sub-satellite position, see the globe view (requires WebGL).

§ Visibility from observer

Set your observer location to see the next 7 days of passes ≥ 10°. The values pass through the URL so the page stays shareable.

No JS? Fill the form by hand. The geolocation button needs JavaScript.